N905FM PHOG-PHOG

Flight info

Callsign N905FM
Flight time 0h 11m
Altitude 7000
Route IFR RADAR CIRCUITS
Aircraft BE9L/L-VGDW/C

Departure

Time 2026-04-22 00:45
Airport Kahului International Airport (PHOG)

Arrival

Time 2026-04-22 00:57
Airport Kahului International Airport (PHOG)
Time Latitude Longitude Altitude Speed Heading
2026-04-22 00:39 20.89397 -156.43080 27 ft 0 kts 292°
2026-04-22 00:42 20.89408 -156.43097 27 ft 9 kts 311°
2026-04-22 00:43 20.89420 -156.43144 27 ft 0 kts 261°
2026-04-22 00:43 20.89419 -156.43147 27 ft 3 kts 259°
2026-04-22 00:44 20.89408 -156.43223 28 ft 17 kts 269°
2026-04-22 00:44 20.89452 -156.43234 28 ft 8 kts 34°
2026-04-22 00:44 20.89610 -156.43121 28 ft 55 kts 34°
2026-04-22 00:44 20.90084 -156.42772 44 ft 106 kts 33°
2026-04-22 00:45 20.90792 -156.42292 276 ft 134 kts 31°
2026-04-22 00:45 20.91638 -156.41683 513 ft 158 kts 32°
2026-04-22 00:45 20.92611 -156.41007 727 ft 174 kts 30°
2026-04-22 00:45 20.93647 -156.40271 970 ft 183 kts 32°
2026-04-22 00:46 20.94703 -156.39505 1347 ft 181 kts 34°
2026-04-22 00:46 20.95741 -156.38774 1830 ft 178 kts 32°
2026-04-22 00:46 20.96772 -156.38046 2279 ft 177 kts 32°
2026-04-22 00:46 20.97792 -156.37322 2737 ft 175 kts 32°
2026-04-22 00:47 20.98836 -156.36592 2968 ft 185 kts 30°
2026-04-22 00:47 21.00109 -156.36335 3014 ft 195 kts 356°
2026-04-22 00:47 21.01406 -156.36819 3014 ft 204 kts 328°
2026-04-22 00:47 21.02614 -156.37678 3012 ft 212 kts 326°
2026-04-22 00:48 21.03834 -156.38592 3011 ft 216 kts 326°
2026-04-22 00:48 21.05063 -156.39524 3015 ft 217 kts 324°
2026-04-22 00:48 21.06436 -156.40113 3012 ft 217 kts 358°
2026-04-22 00:48 21.07944 -156.39985 3011 ft 219 kts
2026-04-22 00:49 21.09453 -156.39739 3019 ft 220 kts
2026-04-22 00:49 21.10974 -156.39475 3015 ft 222 kts
2026-04-22 00:49 21.12464 -156.39097 3007 ft 220 kts 28°
2026-04-22 00:49 21.13440 -156.37878 3013 ft 221 kts 72°
2026-04-22 00:50 21.13432 -156.36255 3013 ft 221 kts 103°
2026-04-22 00:50 21.12963 -156.34655 2785 ft 227 kts 114°
2026-04-22 00:50 21.11871 -156.33457 2554 ft 233 kts 155°
2026-04-22 00:50 21.10310 -156.33297 2338 ft 230 kts 193°
2026-04-22 00:51 21.08747 -156.33575 2114 ft 227 kts 185°
2026-04-22 00:51 21.07218 -156.33891 2053 ft 222 kts 198°
2026-04-22 00:51 21.05806 -156.34524 2024 ft 218 kts 204°
2026-04-22 00:51 21.04446 -156.35206 2008 ft 215 kts 205°
2026-04-22 00:52 21.03097 -156.35883 2008 ft 213 kts 206°
2026-04-22 00:52 21.01756 -156.36554 1997 ft 213 kts 206°
2026-04-22 00:52 21.00414 -156.37223 2002 ft 212 kts 205°
2026-04-22 00:52 20.99123 -156.37866 2008 ft 197 kts 206°
2026-04-22 00:53 20.97922 -156.38466 1974 ft 187 kts 206°
2026-04-22 00:53 20.96781 -156.39036 1849 ft 173 kts 206°
2026-04-22 00:53 20.95735 -156.39557 1701 ft 161 kts 206°
2026-04-22 00:53 20.94731 -156.40057 1559 ft 158 kts 205°
2026-04-22 00:54 20.93758 -156.40543 1410 ft 150 kts 205°
2026-04-22 00:54 20.92833 -156.41007 1161 ft 145 kts 206°
2026-04-22 00:54 20.91943 -156.41489 1004 ft 142 kts 210°
2026-04-22 00:54 20.91107 -156.42054 816 ft 142 kts 226°
2026-04-22 00:55 20.90445 -156.42815 735 ft 138 kts 233°
2026-04-22 00:55 20.89779 -156.43539 696 ft 134 kts 225°
2026-04-22 00:55 20.88345 -156.44582 542 ft 112 kts 178°
2026-04-22 00:56 20.87839 -156.44117 395 ft 106 kts 78°
2026-04-22 00:56 20.88402 -156.43730 256 ft 110 kts
2026-04-22 00:56 20.89098 -156.43487 57 ft 104 kts 32°
2026-04-22 00:56 20.89641 -156.43093 36 ft 87 kts 36°
2026-04-22 00:57 20.90096 -156.42755 24 ft 53 kts 35°
2026-04-22 00:57 20.90241 -156.42675 23 ft 10 kts 297°
2026-04-22 00:57 20.90194 -156.42789 23 ft 26 kts 246°
2026-04-22 00:57 20.90075 -156.42930 24 ft 18 kts 216°
2026-04-22 00:58 20.90047 -156.42950 24 ft 0 kts 216°
2026-04-22 00:58 20.90042 -156.42954 27 ft 4 kts 212°
2026-04-22 00:58 20.89988 -156.42995 25 ft 13 kts 214°
2026-04-22 00:59 20.89903 -156.43058 25 ft 12 kts 217°
2026-04-22 00:59 20.89808 -156.43127 27 ft 18 kts 216°
2026-04-22 00:59 20.89760 -156.43115 25 ft 6 kts 127°
2026-04-22 00:59 20.89753 -156.43105 25 ft 5 kts 124°
2026-04-22 01:00 20.89700 -156.43024 28 ft 14 kts 124°
2026-04-22 01:00 20.89653 -156.42955 26 ft 12 kts 129°
2026-04-22 01:00 20.89618 -156.42908 28 ft 0 kts 41°
2026-04-22 01:00 20.89633 -156.42883 27 ft 4 kts 107°
2026-04-22 01:01 20.89631 -156.42879 29 ft 0 kts 128°